Weather History for KDEW - November, 2011

Change the Weather History Date:

Saturday, November 19, 2011

  Actual Average Record
Temperature  
Mean Temperature 19 °F 33 °F  
Max Temperature 26 °F 40 °F - ()
Min Temperature 11 °F 26 °F - ()
Degree Days  
Heating Degree Days 46 32  
Month to date heating degree days 632 557  
Since 1 July heating degree days 1586 1625  
Cooling Degree Days 0 0  
Month to date cooling degree days 0 0  
Year to date cooling degree days 96 187  
Moisture  
Dew Point 17 °F    
Average Humidity 82    
Maximum Humidity 96    
Minimum Humidity 68    
Precipitation  
Precipitation 0.04 in 0.12 in - ()
Month to date precipitation 1.51 2.02  
Year to date precipitation 17.38 18.08  
Sea Level Pressure  
Sea Level Pressure 29.85 in    
Wind  
Wind Speed 8 mph (NNE)    
Max Wind Speed 16 mph    
Max Gust Speed 21 mph    
Visibility 7 miles    
Events Fog , Snow    
T = Trace of Precipitation, MM = Missing Value Source: NWS Daily Summary

Daily Weather History Graph

Daily Weather History Graph

Search for Another Location

Airport or City:

Trip Planner

Search our weather history database for the weather conditions in past years. The results will help you decide how hot, cold, wet, or windy it might be!

Date:

Astronomy

Nov. 19, 2011 Rise Set
Actual Time 7:01 AM PST 4:07 PM PST
Civil Twilight 6:27 AM PST 4:42 PM PST
Nautical Twilight 5:49 AM PST 5:20 PM PST
Astronomical Twilight 5:12 AM PST 5:57 PM PST
Moon No Moon Rise 12:52 PM PST (11/19)
Length of Visible Light 10h 14m
Length of Day
9h 06m
Last Quarter, 37% of the Moon is Illuminated
Nov 19
Last Quarter
Nov 24
New
Dec 2
First Quarter
Dec 10
Full
Dec 17
Last Quarter

Hourly Weather History & Observations

Time (PST) Temp. Windchill Dew Point Humidity Pressure Visibility Wind Dir Wind Speed Gust Speed Precip Events Conditions
12:53 AM 23.0 °F 11.1 °F 17.1 °F 78% 29.80 in 10.0 mi NE 12.7 mph - N/A   Overcast
1:15 AM 23.0 °F 11.1 °F 17.6 °F 80% 29.74 in 10.0 mi NE 12.7 mph - N/A   Overcast
1:37 AM 21.2 °F 8.3 °F 17.6 °F 86% 29.74 in 10.0 mi NE 13.8 mph - N/A   Overcast
1:51 AM 21.2 °F 10.1 °F 17.6 °F 86% 29.75 in 10.0 mi NNE 10.4 mph - N/A   Overcast
1:53 AM 21.9 °F 11.7 °F 17.1 °F 82% 29.82 in 10.0 mi NNE 9.2 mph - N/A   Overcast
2:14 AM 21.2 °F 10.1 °F 15.8 °F 80% 29.76 in 1.5 mi NNE 10.4 mph - 0.00 in Snow Light Snow
2:26 AM 21.2 °F 9.5 °F 17.6 °F 86% 29.76 in 1.2 mi NE 11.5 mph - 0.00 in Snow Light Snow
2:45 AM 21.2 °F 10.9 °F 17.6 °F 86% 29.76 in 0.8 mi NNE 9.2 mph - 0.01 in Snow Light Snow
2:53 AM 21.0 °F 10.6 °F 18.0 °F 88% 29.84 in 0.5 mi NE 9.2 mph - 0.02 in Fog , Snow Snow
3:11 AM 21.2 °F 9.5 °F 17.6 °F 86% 29.76 in 1.0 mi NNE 11.5 mph - 0.01 in Snow Light Snow
3:18 AM 21.2 °F 8.9 °F 17.6 °F 86% 29.76 in 1.5 mi NNE 12.7 mph - 0.01 in Snow Light Snow
3:29 AM 21.2 °F 8.9 °F 17.6 °F 86% 29.77 in 2.0 mi NNE 12.7 mph - 0.01 in Snow Light Snow
3:37 AM 21.2 °F 8.3 °F 17.6 °F 86% 29.77 in 3.0 mi NE 13.8 mph - 0.01 in Snow Light Snow
3:53 AM 21.0 °F 9.3 °F 17.1 °F 85% 29.85 in 7.0 mi NE 11.5 mph - 0.01 in Snow Light Snow
4:32 AM 21.2 °F 10.9 °F 17.6 °F 86% 29.78 in 10.0 mi NE 9.2 mph - 0.00 in   Overcast
4:42 AM 21.2 °F 8.9 °F 17.6 °F 86% 29.78 in 10.0 mi NE 12.7 mph - 0.00 in   Overcast
4:53 AM 21.0 °F 9.3 °F 16.0 °F 81% 29.86 in 10.0 mi NNE 11.5 mph - 0.00 in   Overcast
5:53 AM 21.0 °F 9.9 °F 17.1 °F 85% 29.87 in 10.0 mi NNE 10.4 mph - N/A   Overcast
6:53 AM 21.0 °F 11.4 °F 17.1 °F 85% 29.89 in 10.0 mi NNE 8.1 mph - N/A   Overcast
7:53 AM 21.9 °F 11.0 °F 17.1 °F 82% 29.90 in 5.0 mi NNE 10.4 mph - 0.00 in Snow Light Snow
8:53 AM 21.9 °F 11.0 °F 16.0 °F 78% 29.91 in 10.0 mi NNE 10.4 mph - 0.00 in   Overcast
9:53 AM 23.0 °F 10.1 °F 16.0 °F 74% 29.91 in 10.0 mi NNE 15.0 mph - N/A   Overcast
10:21 AM 23.0 °F 10.1 °F 15.8 °F 74% 29.82 in 10.0 mi NNE 15.0 mph - N/A   Overcast
10:35 AM 23.0 °F 11.7 °F 15.8 °F 74% 29.82 in 10.0 mi NNE 11.5 mph - N/A   Overcast
10:53 AM 24.1 °F 13.1 °F 17.1 °F 75% 29.90 in 10.0 mi NNE 11.5 mph - N/A   Overcast
11:53 AM 25.0 °F 14.8 °F 18.0 °F 75% 29.89 in 10.0 mi NNE 10.4 mph - N/A   Overcast
1:09 PM 26.6 °F 16.8 °F 17.6 °F 69% 29.82 in 10.0 mi NE 10.4 mph - N/A   Overcast
1:53 PM 26.1 °F 17.6 °F 18.0 °F 71% 29.91 in 5.0 mi NNE 8.1 mph - 0.00 in Snow Light Snow
1:56 PM 26.6 °F 19.1 °F 17.6 °F 69% 29.82 in 1.5 mi NNE 6.9 mph - 0.01 in Snow Light Snow
2:05 PM 24.8 °F 16.1 °F 19.4 °F 80% 29.82 in 0.8 mi NE 8.1 mph - 0.01 in Snow Light Snow
2:13 PM 26.6 °F 19.1 °F 19.4 °F 74% 29.82 in 2.0 mi NNE 6.9 mph - 0.01 in Snow Light Snow
2:21 PM 26.6 °F 18.2 °F 19.4 °F 74% 29.82 in 4.0 mi NE 8.1 mph - 0.01 in Snow Light Snow
2:53 PM 25.0 °F 19.3 °F 19.0 °F 78% 29.92 in 8.0 mi NNE 4.6 mph - 0.01 in Snow Light Snow
3:53 PM 24.1 °F 17.0 °F 19.0 °F 81% 29.93 in 10.0 mi North 5.8 mph - 0.00 in   Overcast
5:53 PM 24.1 °F 18.2 °F 18.0 °F 77% 29.95 in 10.0 mi NNE 4.6 mph - N/A   Overcast
6:53 PM 23.0 °F 18.4 °F 19.0 °F 85% 29.96 in 10.0 mi North 3.5 mph - N/A   Overcast
7:53 PM 21.9 °F 14.5 °F 17.1 °F 82% 29.96 in 10.0 mi NNE 5.8 mph - N/A   Mostly Cloudy
8:12 PM 21.2 °F 14.9 °F 17.6 °F 86% 29.88 in 10.0 mi NNE 4.6 mph - N/A   Scattered Clouds
8:37 PM 19.4 °F - 17.6 °F 93% 29.89 in 10.0 mi Calm Calm - N/A   Mostly Cloudy
9:21 PM 15.8 °F - 12.2 °F 86% 29.89 in 10.0 mi Calm Calm - N/A   Scattered Clouds
9:53 PM 14.0 °F 8.2 °F 12.0 °F 92% 29.99 in 10.0 mi NW 3.5 mph - N/A   Mostly Cloudy
10:53 PM 16.0 °F 10.4 °F 12.9 °F 88% 30.00 in 10.0 mi NW 3.5 mph - N/A   Overcast
11:21 PM 17.6 °F - 15.8 °F 93% 29.91 in 10.0 mi Calm Calm - N/A   Overcast
11:53 PM 19.0 °F 13.9 °F 16.0 °F 88% 30.00 in 10.0 mi NNW 3.5 mph - N/A   Overcast